UAE9008 LIMC-LIRF

Flight info

Callsign UAE9008
Flight time N/A
Altitude 37000
Route ROBAS DCT TINKU DCT XIBIL
Aircraft B77W/H-SDE1E2E3FGHIJ2J3J4J5M1RWXY/LB1D1

Departure

Time N/A
Airport Milan Malpensa International Airport (LIMC)

Arrival

Time 2026-05-07 21:51
Airport Rome–Fiumicino Leonardo da Vinci International Airport (LIRF)
Time Latitude Longitude Altitude Speed Heading
2026-05-07 21:23 44.12082 10.34102 36994 ft 464 kts 165°
2026-05-07 21:24 44.07695 10.36566 36988 ft 461 kts 165°
2026-05-07 21:24 44.01773 10.39886 36988 ft 457 kts 165°
2026-05-07 21:25 43.95855 10.43192 36988 ft 459 kts 165°
2026-05-07 21:25 43.89906 10.46511 36987 ft 459 kts 165°
2026-05-07 21:26 43.83997 10.49801 37006 ft 459 kts 165°
2026-05-07 21:26 43.78064 10.53096 36999 ft 460 kts 165°
2026-05-07 21:27 43.72072 10.56156 36998 ft 455 kts 169°
2026-05-07 21:27 43.66093 10.58888 37000 ft 454 kts 169°
2026-05-07 21:28 43.60080 10.61650 36999 ft 454 kts 169°
2026-05-07 21:28 43.54100 10.64406 36993 ft 452 kts 169°
2026-05-07 21:29 43.48161 10.67146 36969 ft 451 kts 169°
2026-05-07 21:29 43.42225 10.69882 36244 ft 449 kts 169°
2026-05-07 21:30 43.39234 10.71258 35533 ft 451 kts 169°
2026-05-07 21:30 43.36242 10.72632 34763 ft 455 kts 169°
2026-05-07 21:30 43.33249 10.74006 33866 ft 459 kts 169°
2026-05-07 21:30 43.30217 10.75398 32978 ft 460 kts 169°
2026-05-07 21:31 43.27154 10.76803 32147 ft 461 kts 169°
2026-05-07 21:31 43.24104 10.78202 31314 ft 461 kts 169°
2026-05-07 21:31 43.21095 10.79580 30538 ft 460 kts 169°
2026-05-07 21:31 43.18078 10.80964 30085 ft 453 kts 169°
2026-05-07 21:32 43.15062 10.82340 29633 ft 461 kts 169°
2026-05-07 21:32 43.11973 10.83745 29096 ft 465 kts 168°
2026-05-07 21:32 43.08940 10.85129 28551 ft 463 kts 168°
2026-05-07 21:32 43.05873 10.86529 27997 ft 458 kts 168°
2026-05-07 21:33 43.02873 10.87897 27457 ft 453 kts 168°
2026-05-07 21:33 42.99898 10.89250 26918 ft 448 kts 168°
2026-05-07 21:33 42.96968 10.90582 26382 ft 443 kts 167°
2026-05-07 21:33 42.94057 10.91903 25851 ft 438 kts 167°
2026-05-07 21:34 42.91166 10.93214 25321 ft 433 kts 167°
2026-05-07 21:34 42.88279 10.94521 24811 ft 428 kts 166°
2026-05-07 21:34 42.85375 10.95834 24279 ft 423 kts 166°
2026-05-07 21:34 42.82542 10.97176 23733 ft 421 kts 162°
2026-05-07 21:35 42.79842 10.99028 23190 ft 421 kts 152°
2026-05-07 21:35 42.77348 11.01492 22655 ft 422 kts 142°
2026-05-07 21:35 42.75209 11.04196 22140 ft 428 kts 140°
2026-05-07 21:35 42.73015 11.07058 21592 ft 431 kts 139°
2026-05-07 21:36 42.70844 11.09889 21041 ft 428 kts 139°
2026-05-07 21:36 42.68700 11.12682 20512 ft 424 kts 139°
2026-05-07 21:36 42.66577 11.15442 19969 ft 420 kts 139°
2026-05-07 21:36 42.64468 11.18178 19448 ft 415 kts 139°
2026-05-07 21:37 42.62373 11.20892 18898 ft 411 kts 139°
2026-05-07 21:37 42.60334 11.23531 18357 ft 407 kts 139°
2026-05-07 21:37 42.58189 11.26304 17806 ft 403 kts 139°
2026-05-07 21:37 42.56169 11.28911 17277 ft 399 kts 139°
2026-05-07 21:38 42.54187 11.31465 16735 ft 395 kts 138°
2026-05-07 21:38 42.52178 11.34053 16206 ft 391 kts 138°
2026-05-07 21:38 42.50220 11.36573 15683 ft 387 kts 138°
2026-05-07 21:38 42.48272 11.39077 15148 ft 384 kts 138°
2026-05-07 21:39 42.46363 11.41530 14629 ft 380 kts 137°
2026-05-07 21:39 42.44437 11.44002 14098 ft 376 kts 137°
2026-05-07 21:39 42.42548 11.46424 13568 ft 373 kts 137°
2026-05-07 21:39 42.40676 11.48822 13049 ft 369 kts 137°
2026-05-07 21:40 42.38821 11.51196 12545 ft 366 kts 137°
2026-05-07 21:40 42.36978 11.53553 12022 ft 363 kts 137°
2026-05-07 21:40 42.35116 11.55932 11487 ft 360 kts 137°
2026-05-07 21:40 42.33315 11.58232 10972 ft 357 kts 137°
2026-05-07 21:41 42.31456 11.60603 10622 ft 348 kts 137°
2026-05-07 21:41 42.29633 11.62928 10541 ft 331 kts 137°
2026-05-07 21:41 42.27937 11.65089 10439 ft 317 kts 138°
2026-05-07 21:41 42.26290 11.67185 10312 ft 305 kts 138°
2026-05-07 21:42 42.24759 11.69131 10174 ft 294 kts 138°
2026-05-07 21:42 42.23298 11.70987 10041 ft 284 kts 138°
2026-05-07 21:42 42.21892 11.72800 9872 ft 276 kts 134°
2026-05-07 21:42 42.20785 11.74932 9533 ft 276 kts 123°
2026-05-07 21:43 42.19805 11.77127 9162 ft 276 kts 122°
2026-05-07 21:43 42.18817 11.79350 8850 ft 275 kts 122°
2026-05-07 21:43 42.17839 11.81551 8538 ft 273 kts 122°
2026-05-07 21:43 42.16863 11.83745 8224 ft 272 kts 122°
2026-05-07 21:44 42.15884 11.85945 7895 ft 271 kts 121°
2026-05-07 21:44 42.14922 11.88106 7556 ft 270 kts 121°
2026-05-07 21:44 42.13960 11.90263 7263 ft 268 kts 121°
2026-05-07 21:44 42.12998 11.92420 6958 ft 267 kts 121°
2026-05-07 21:45 42.12040 11.94568 6649 ft 266 kts 121°
2026-05-07 21:45 42.11088 11.96698 6335 ft 265 kts 121°
2026-05-07 21:45 42.10144 11.98810 6020 ft 264 kts 121°
2026-05-07 21:45 42.09201 12.00919 5720 ft 263 kts 120°
2026-05-07 21:46 42.08246 12.03052 5414 ft 262 kts 120°
2026-05-07 21:46 42.07314 12.05132 5101 ft 261 kts 120°
2026-05-07 21:46 42.06382 12.07211 4797 ft 260 kts 120°
2026-05-07 21:46 42.05441 12.09308 4507 ft 258 kts 120°
2026-05-07 21:47 42.04520 12.11360 4210 ft 257 kts 120°
2026-05-07 21:47 42.03595 12.13425 3905 ft 256 kts 118°
2026-05-07 21:47 42.02853 12.15576 3718 ft 249 kts 112°
2026-05-07 21:47 42.02101 12.17655 3557 ft 242 kts 121°
2026-05-07 21:48 42.00925 12.19164 3363 ft 237 kts 151°
2026-05-07 21:48 41.99376 12.19977 3066 ft 237 kts 161°
2026-05-07 21:48 41.97776 12.20635 2720 ft 241 kts 161°
2026-05-07 21:48 41.96155 12.21304 2416 ft 242 kts 161°
2026-05-07 21:49 41.94551 12.21985 2080 ft 240 kts 161°
2026-05-07 21:49 41.92968 12.22655 1767 ft 234 kts 161°
2026-05-07 21:49 41.91419 12.23308 1436 ft 226 kts 162°
2026-05-07 21:49 41.89962 12.23917 1140 ft 214 kts 162°
2026-05-07 21:50 41.88619 12.24475 871 ft 192 kts 162°
2026-05-07 21:50 41.87373 12.24997 631 ft 174 kts 163°
2026-05-07 21:50 41.86286 12.25455 422 ft 157 kts 163°
2026-05-07 21:50 41.85280 12.25870 172 ft 142 kts 162°
2026-05-07 21:51 41.84333 12.26278 48 ft 141 kts 164°
2026-05-07 21:51 41.83450 12.26635 17 ft 124 kts 161°
2026-05-07 21:51 41.82562 12.27002 17 ft 110 kts 165°
2026-05-07 21:51 41.82061 12.27146 16 ft 46 kts 191°
2026-05-07 21:52 41.81961 12.27115 17 ft 5 kts 195°
2026-05-07 21:52 41.81917 12.27099 17 ft 7 kts 195°
2026-05-07 21:52 41.81851 12.27078 17 ft 11 kts 192°
2026-05-07 21:52 41.81760 12.27052 17 ft 14 kts 189°
2026-05-07 21:53 41.81650 12.27063 17 ft 17 kts 166°
2026-05-07 21:53 41.81530 12.27114 17 ft 19 kts 161°
2026-05-07 21:53 41.81397 12.27168 17 ft 19 kts 163°
2026-05-07 21:53 41.81266 12.27224 17 ft 19 kts 163°
2026-05-07 21:54 41.81140 12.27275 17 ft 18 kts 163°
2026-05-07 21:54 41.81016 12.27326 17 ft 18 kts 162°
2026-05-07 21:54 41.80895 12.27348 17 ft 17 kts 182°
2026-05-07 21:54 41.80776 12.27322 17 ft 16 kts 190°
2026-05-07 21:55 41.80671 12.27262 16 ft 15 kts 230°
2026-05-07 21:55 41.80628 12.27125 16 ft 15 kts 249°
2026-05-07 21:55 41.80590 12.26991 16 ft 15 kts 249°
2026-05-07 21:55 41.80553 12.26858 16 ft 14 kts 249°
2026-05-07 21:56 41.80517 12.26730 16 ft 14 kts 249°
2026-05-07 21:56 41.80483 12.26605 18 ft 13 kts 250°
2026-05-07 21:56 41.80454 12.26499 20 ft 11 kts 249°
2026-05-07 21:56 41.80425 12.26395 20 ft 12 kts 249°
2026-05-07 21:57 41.80396 12.26290 20 ft 11 kts 249°
2026-05-07 21:57 41.80369 12.26194 22 ft 10 kts 249°
2026-05-07 21:57 41.80344 12.26104 23 ft 11 kts 250°
2026-05-07 21:57 41.80312 12.25985 23 ft 15 kts 250°
2026-05-07 21:58 41.80268 12.25823 21 ft 20 kts 249°
2026-05-07 21:58 41.80219 12.25644 22 ft 20 kts 250°
2026-05-07 21:58 41.80169 12.25464 20 ft 20 kts 250°
2026-05-07 21:58 41.80123 12.25291 19 ft 19 kts 250°
2026-05-07 21:59 41.80096 12.25114 18 ft 19 kts 271°
2026-05-07 21:59 41.80106 12.24938 16 ft 18 kts 268°
2026-05-07 21:59 41.80080 12.24777 16 ft 17 kts 250°
2026-05-07 21:59 41.80038 12.24631 16 ft 16 kts 249°
2026-05-07 22:00 41.79997 12.24482 16 ft 16 kts 251°
2026-05-07 22:00 41.79931 12.24390 16 ft 12 kts 175°
2026-05-07 22:00 41.79850 12.24387 16 ft 10 kts 211°
2026-05-07 22:00 41.79817 12.24310 16 ft 9 kts 250°
2026-05-07 22:01 41.79794 12.24221 17 ft 9 kts 251°
2026-05-07 22:01 41.79770 12.24166 16 ft 5 kts 208°
2026-05-07 22:01 41.79752 12.24161 16 ft 0 kts 165°
2026-05-07 22:01 41.79743 12.24165 16 ft 1 kts 159°
2026-05-07 22:02 41.79728 12.24173 16 ft 2 kts 159°
2026-05-07 22:02 41.79707 12.24183 16 ft 3 kts 160°
2026-05-07 22:02 41.79697 12.24188 16 ft 2 kts 161°
2026-05-07 22:02 41.79694 12.24189 16 ft 0 kts 160°